Preview of NWS' New Version of Forecast
This preview is not operational and should not be used for support decisions.

Regional Weather Roundup (RWR)

Issued by National Weather Service (NWS)

                            
000
ASCA42 TJSJ 171710
RWRPR 
PUERTO RICO/U.S. VIRGIN ISLANDS HOURLY WEATHER ROUNDUP
NATIONAL WEATHER SERVICE SAN JUAN PR
100 PM AST WED APR 17 2019

PRZ001>002-007>008-010-171800-
PUERTO RICO
  
CITY           SKY/WX    TMP DP  RH WIND       PRES   REMARKS
SAN JUAN LMM   MOSUNNY   84  72  65 NE21G26   30.01F                  
CEIBA            N/A    N/A N/A N/A MISG      30.03F                  
$$

VIZ001>002-171800-
U.S. VIRGIN ISLANDS
  
CITY           SKY/WX    TMP DP  RH WIND       PRES   REMARKS
CHARLOTTE AMA  SUNNY     86  66  51 E10       30.01F                  
CHRISTIANSTED  MOSUNNY   82  66  57 E20G26    30.01F                  
$$

HOURLY WEATHER ROUNDUP FOR THE NEWS MEDIA
  
CITY           SKY/WX    TMP DP  RH WIND       PRES   REMARKS
ORLANDO        FAIR      81  60  48 SE9G20    30.13F                  
NEW YORK       PTSUNNY   57  30  35 SE12      30.19S                  
NEWARK         PTSUNNY   58  23  26 SE7       30.17S                  
CHICAGO        PTSUNNY   61  50  67 SE9       29.80F                  
HARTFORD       FAIR      56  27  32 CALM      30.13F                  
BOSTON         FAIR      60  22  23 NW13      30.14S                  
DALLAS         DRIZZLE   70  66  87 SE9       29.82F FOG              
PHILADELPHIA   CLOUDY    60  38  43 E5        30.16S                  
LOS ANGELES    MOSUNNY   66  50  56 VRB7      30.14F                  
WASHINGTON DC  CLOUDY    69  44  40 VRB3      30.08F